Weather History for KOSH - February, 2014

Change the Weather History Date:

Friday, February 7, 2014

  Actual Average Record
Temperature  
Mean Temperature 5 °F -  
Max Temperature 12 °F 25 °F 46 °F (2009)
Min Temperature -2 °F 6 °F -15 °F (1972)
Degree Days  
Heating Degree Days 60    
Moisture  
Dew Point -8 °F    
Average Humidity 59    
Maximum Humidity 72    
Minimum Humidity 44    
Precipitation  
Precipitation 0.00 in - - ()
Sea Level Pressure  
Sea Level Pressure 30.29 in    
Wind  
Wind Speed 8 mph (SW)    
Max Wind Speed 13 mph    
Max Gust Speed 24 mph    
Visibility 10 miles    
Events      
Averages and records for this station are not official NWS values.
T = Trace of Precipitation, MM = Missing Value Source: NWS Daily Summary

Daily Weather History Graph

Daily Weather History Graph

Search for Another Location

Airport or City:

Trip Planner

Search our weather history database for the weather conditions in past years. The results will help you decide how hot, cold, wet, or windy it might be!

Date:

Astronomy

Feb. 07, 2014 Rise Set
Actual Time 7:04 AM CST 5:13 PM CST
Civil Twilight 6:34 AM CST 5:43 PM CST
Nautical Twilight 5:59 AM CST 6:17 PM CST
Astronomical Twilight 5:26 AM CST 6:51 PM CST
Moon 11:22 AM CST (2/7) 1:21 AM CST (2/7)
Length of Visible Light 11h 09m
Length of Day
10h 08m
First Quarter, 59% of the Moon is Illuminated
Feb 7
First Quarter
Feb 14
Full
Feb 22
Last Quarter
Mar 1
New
Mar 8
First Quarter

Hourly Weather History & Observations

Time (CST) Temp. Windchill Dew Point Humidity Pressure Visibility Wind Dir Wind Speed Gust Speed Precip Events Conditions
12:53 AM -2.0 °F -15.4 °F -11.0 °F 66% 30.32 in 10.0 mi SW 6.9 mph - N/A   Clear
1:53 AM -2.0 °F -15.4 °F -9.9 °F 69% 30.31 in 10.0 mi Variable 6.9 mph - N/A   Clear
2:53 AM -2.9 °F -16.5 °F -9.9 °F 72% 30.31 in 10.0 mi SW 6.9 mph - N/A   Clear
3:53 AM -2.9 °F -13.3 °F -9.9 °F 72% 30.30 in 10.0 mi WSW 4.6 mph - N/A   Clear
4:53 AM -2.0 °F -13.9 °F -9.9 °F 69% 30.29 in 10.0 mi SW 5.8 mph - N/A   Clear
5:53 AM -2.9 °F -16.5 °F -9.9 °F 72% 30.30 in 10.0 mi WSW 6.9 mph - N/A   Clear
6:53 AM -2.0 °F -13.9 °F -9.9 °F 69% 30.29 in 10.0 mi SW 5.8 mph - N/A   Clear
7:53 AM -2.0 °F -17.7 °F -9.9 °F 69% 30.31 in 10.0 mi SSW 9.2 mph - N/A   Clear
8:53 AM -0.0 °F -13.0 °F -9.0 °F 66% 30.32 in 10.0 mi SW 6.9 mph - N/A   Clear
9:53 AM 1.9 °F -14.7 °F -7.1 °F 66% 30.32 in 10.0 mi SW 11.5 mph - N/A   Clear
10:53 AM 5.0 °F -8.1 °F -6.0 °F 61% 30.31 in 10.0 mi SW 8.1 mph - N/A   Clear
11:53 AM 8.1 °F -7.7 °F -6.0 °F 53% 30.29 in 10.0 mi SW 12.7 mph 24.2 mph N/A   Clear
12:53 PM 10.0 °F -5.2 °F -6.0 °F 48% 30.27 in 10.0 mi WSW 12.7 mph 21.9 mph N/A   Clear
1:53 PM 10.9 °F -2.6 °F -5.1 °F 49% 30.26 in 10.0 mi SW 10.4 mph 18.4 mph N/A   Clear
2:53 PM 12.9 °F -0.9 °F -5.1 °F 45% 30.25 in 10.0 mi SW 11.5 mph 21.9 mph N/A   Clear
3:53 PM 12.9 °F 0.7 °F -5.1 °F 45% 30.25 in 10.0 mi SW 9.2 mph - N/A   Clear
4:53 PM 12.0 °F 1.5 °F -6.0 °F 44% 30.26 in 10.0 mi SW 6.9 mph - N/A   Clear
5:53 PM 10.0 °F -0.9 °F -7.1 °F 46% 30.27 in 10.0 mi SW 6.9 mph - N/A   Clear
6:53 PM 9.0 °F -0.9 °F -7.1 °F 48% 30.29 in 10.0 mi SW 5.8 mph - N/A   Clear
7:53 PM 6.1 °F -5.6 °F -8.0 °F 53% 30.30 in 10.0 mi SSW 6.9 mph - N/A   Clear
8:53 PM 5.0 °F -6.9 °F -8.0 °F 55% 30.30 in 10.0 mi SSW 6.9 mph - N/A   Clear
9:53 PM 3.9 °F -6.9 °F -8.0 °F 58% 30.31 in 10.0 mi SSW 5.8 mph - N/A   Clear
10:53 PM 1.9 °F -10.6 °F -7.1 °F 66% 30.32 in 10.0 mi SSW 6.9 mph - N/A   Clear
11:53 PM 1.9 °F -10.6 °F -7.1 °F 66% 30.32 in 10.0 mi SSW 6.9 mph - N/A   Clear